Hourly Weather Roundup
Issued by NWS Central Illinois

Home | Current Version | Previous Version | Text Only | Print | Product List | Glossary On
Versions: 1 2 3 4 5 6 7 8 9 10 11 12 13 14 15 16 17 18 19 20 21 22 23 24 25 26 27 28 29 30 31 32 33 34 35 36 37 38 39 40 41 42 43 44 45 46 47 48 49 50
000
NZUS43 KILX 302010
HWRILX

AREA WEATHER ROUNDUP
NATIONAL WEATHER SERVICE, LINCOLN IL
300 PM CDT SUN AUG 30 2015


CITY           SKY/WX    TMP DP  RH WIND       PRES   REMARKS
BLOOMINGTON    PTSUNNY   82  71  69 N6        30.05F HX  86
CHAMPAIGN      MOSUNNY   86  65  49 VRB7      30.03F HX  88
DANVILLE       MOSUNNY   83  70  65 S7        30.01F HAZE    HX  87
DECATUR        MOSUNNY   86  65  49 S6        30.03F HX  88
EFFINGHAM      CLOUDY    85  63  46 SE3       30.05F HX  86
FLORA          MOSUNNY   85  64  50 SW7       30.04F HX  86
GALESBURG      MOSUNNY   80  67  65 NE3       30.04F HX  82
JACKSONVILLE   MOSUNNY   87  70  57 CALM      30.02F HX  91
LACON          CLOUDY    76  65  69 CALM      30.04F
LAWRENCEVILLE  PTSUNNY   86  67  52 S7        30.04F HX  89
LITCHFIELD     MOSUNNY   85  66  53 SW8       30.03F HX  87
$$


CITY           SKY/WX    TMP DP  RH WIND       PRES   REMARKS
LINCOLN        PTSUNNY   85  69  59 NE5       30.01F HX  88
MACOMB         SUNNY     80  68  66 CALM      30.05F HX  83
MATTOON        MOSUNNY   84  64  50 S6        30.03F HX  85
MT CARMEL AP   MOSUNNY   84  63  48 CALM      30.04F HX  85
OLNEY-NOBLE AP PTSUNNY   82  66  57 CALM      30.04F HX  85
PARIS          SUNNY     86  65  48 S9        30.04F HX  87
PEORIA         MOSUNNY   83  67  58 VRB5      30.04F HX  85
PONTIAC        PTSUNNY   80  71  74 CALM      30.05F HX  83
RANTOUL        PTSUNNY   83  71  65 CALM      30.03F HX  88
ROBINSON       MOSUNNY   86  65  49 SW9       30.04F HX  87
SPRINGFIELD    MOSUNNY   87  70  56 NW5       30.02F HX  92
TAYLORVILLE    SUNNY     84  70  61 S6        30.02F HX  88
$$

...REGIONAL REPORTS...


CITY           SKY/WX    TMP DP  RH WIND       PRES   REMARKS
CHICAGO O`HARE PTSUNNY   74  61  63 CALM      30.05F
KANKAKEE       CLOUDY    78  70  74 W6        30.05F HX  81
MOLINE         SUNNY     79  65  62 CALM      30.04F HX  81
MOUNT STERLING SUNNY     83  68  60 SE5       30.02F HX  86
MOUNT VERNON   MOSUNNY   86  68  54 S10       30.04F HX  89
PITTSFIELD     MOSUNNY   86  68  55 CALM      30.03F HX  89
QUINCY         PTSUNNY   83  68  60 VRB3      30.02F HX  86
ROCKFORD       PTSUNNY   75  62  64 VRB5      30.07F
$$


CITY           SKY/WX    TMP DP  RH WIND       PRES   REMARKS
BURLINGTON     SUNNY     81  66  60 VRB3      30.03F HX  83
CEDAR RAPIDS   PTSUNNY   73  66  78 S7        30.05F
DES MOINES     PTSUNNY   77  67  71 S3        30.03F
KIRKSVILLE     PTSUNNY   83  67  58 MISG      30.04F HX  85
OTTUMWA        SUNNY     76  69  79 CALM      30.03F
ST LOUIS       PTSUNNY   88  66  48 S7        30.02F HX  90
$$


CITY           SKY/WX    TMP DP  RH WIND       PRES   REMARKS
TERRE HAUTE    PTSUNNY   85  65  51 SW7       30.04F HX  86
EVANSVILLE     PTSUNNY   84  68  58 S8        30.05F HX  87
INDIANAPOLIS   MOSUNNY   85  63  47 SW13      30.04F HX  86
LAFAYETTE      MOSUNNY   84  64  50 MISG      30.03F HX  85
MADISON        PTSUNNY   73  62  68 VRB3      30.04F
MILWAUKEE      PTSUNNY   71  63  75 SE8       30.05F
$$




USA.gov is the U.S. government's official web portal to all federal, state and local government web resources and services.